Wind_Speed
7 7 7 6 9 10 11 11 13 13 11 8 9 12 12 13 17 18 17 17 15 16 14 16 15 18 19 18 18 11 17 25
8 6 6 4 7 6 8 10 11 10 11 10 10 10 13 14 15 20 20 17 17 17 17 16 16 16 20 20 20 17 13 23
9 7 5 5 4 6 6 7 9 8 10 9 8 11 11 12 13 15 18 18 18 18 18 18 17 16 20 21 23 20 15 20
10 8 6 4 3 4 3 5 6 9 12 8 10 8 10 11 13 16 16 21 20 21 20 20 19 16 20 19 20 19 20 15
12 10 8 6 4 2 3 3 4 6 8 8 10 9 9 11 12 12 14 17 19 20 22 22 21 19 20 21 21 19 17 16
12 10 9 5 7 4 4 2 3 4 6 8 8 9 9 10 11 13 12 14 17 18 22 22 20 20 20 21 22 22 21 18
13 11 10 11 7 6 3 2 0 4 6 8 9 10 12 15 13 16 14 16 16 17 21 25 21 19 22 22 22 22 22 22
17 14 11 10 7 5 4 1 2 5 7 9 10 12 14 16 17 18 18 19 19 20 21 27 23 22 24 23 24 24 22 21
18 15 13 11 8 5 2 3 4 5 8 10 11 13 14 15 16 20 21 21 21 23 23 20 24 29 27 27 26 27 26 23
19 15 14 10 8 7 6 5 6 8 10 12 12 12 13 15 17 17 17 19 21 20 24 25 25 27 27 27 28 28 28 28
19 17 14 11 8 6 4 4 5 7 8 9 9 12 13 15 16 17 18 21 23 23 22 22 23 24 25 26 28 29 29 30
18 16 11 11 8 5 5 2 2 4 5 8 10 15 16 18 18 18 20 22 22 23 22 22 22 22 23 25 25 27 28 29
17 14 12 8 7 4 3 1 2 4 5 8 10 17 19 20 20 20 20 21 22 22 23 24 25 25 27 29 30 29 29 29
14 12 8 7 5 5 2 3 3 7 7 9 11 17 20 22 21 22 24 25 24 26 24 26 27 27 28 28 27 29 30 32
12 10 8 7 5 3 2 3 6 8 10 12 14 16 19 20 21 22 24 24 26 26 26 27 28 27 28 26 27 32 37 40
11 9 8 5 4 2 2 3 7 10 14 15 15 17 19 20 22 24 24 25 25 26 28 29 29 28 27 31 36 39 39 40
10 9 7 5 2 2 3 6 9 12 14 16 17 18 20 21 24 24 25 26 28 29 29 30 32 33 34 33 36 34 37 38
9 8 6 4 3 2 5 9 11 14 15 17 19 20 22 23 24 25 26 28 28 29 29 32 35 32 32 34 34 38 39 35
9 7 5 2 2 5 9 11 13 15 18 20 19 20 23 23 25 25 27 28 29 29 34 34 32 37 31 35 35 37 34 40
Wind_Direction
137 112 96 71 55 60 36 41 54 42 47 57 43 16 31 16 1 14 20 25 30 27 29 16 24 5 10 10 10 25 23 347
149 134 121 88 85 60 59 31 49 52 38 31 36 35 25 14 13 358 6 14 24 21 26 20 25 19 9 15 13 10 16 5
163 158 147 136 99 86 46 46 25 75 39 37 17 36 26 18 11 1 355 13 18 22 20 19 21 19 13 15 12 10 22 22
172 174 173 144 151 97 55 53 27 52 64 40 53 44 18 19 12 10 1 3 13 17 18 16 18 18 6 11 8 13 9 21
181 180 179 170 176 157 117 79 74 18 61 35 38 32 18 10 359 6 0 356 359 355 9 11 12 14 7 6 4 4 4 8
188 187 185 185 182 177 172 126 37 10 24 17 20 2 359 347 344 356 339 352 346 338 337 350 356 357 357 356 357 358 354 351
192 187 180 192 219 190 179 146 312 334 341 342 342 339 335 330 340 336 327 332 330 326 323 327 334 335 337 338 340 341 343 339
189 188 188 194 186 189 207 165 316 320 328 334 331 327 324 326 322 321 312 311 311 317 311 317 317 318 320 319 321 325 325 319
190 199 196 192 193 205 228 235 290 302 316 312 306 305 312 307 306 298 303 313 310 305 312 305 303 307 310 311 311 312 316 306
190 202 194 197 197 214 232 250 292 306 293 289 298 294 294 295 298 304 303 297 296 299 292 295 299 302 301 302 302 301 301 303
189 200 194 199 216 216 251 259 290 301 310 313 306 299 301 307 310 310 304 301 300 302 304 303 301 301 304 303 301 300 297 296
188 194 200 202 205 235 277 262 309 314 336 321 313 306 309 314 315 311 311 307 309 305 304 300 299 301 302 306 305 305 300 297
185 192 190 188 194 185 239 274 306 313 322 312 305 304 317 319 320 319 314 313 309 309 306 306 301 295 293 290 295 297 308 299
178 165 164 165 168 174 221 242 274 291 318 318 320 317 322 321 321 315 313 314 316 315 317 311 306 303 303 305 307 299 292 290
152 143 137 141 143 163 217 285 301 312 320 325 326 321 318 320 316 314 316 321 319 321 318 316 317 316 309 310 299 302 302 302
143 142 152 152 160 196 257 307 320 322 325 324 323 320 312 315 314 317 321 320 323 318 316 320 319 318 315 305 305 308 313 309
160 152 155 164 170 249 320 321 322 325 321 320 317 317 316 316 319 321 320 321 320 325 323 322 320 316 315 316 316 315 312 312
161 162 167 179 204 296 311 320 320 321 319 316 318 313 316 318 317 319 322 323 324 323 322 317 315 317 314 309 306 311 313 312
163 165 171 187 267 296 314 323 324 324 319 317 312 311 314 315 317 319 318 319 321 322 320 319 316 316 312 315 318 313 308 308
Height
1619 1619 1619 1618 1616 1617 1616 1615 1614 1614 1613 1613 1612 1610 1609 1607 1604 1602 1600 1598 1595 1593 1591 1589 1587 1585 1582 1580 1577 1576 1575 1572
1619 1619 1619 1618 1619 1618 1618 1616 1614 1615 1614 1612 1612 1611 1610 1608 1606 1604 1602 1599 1597 1593 1591 1589 1587 1586 1583 1580 1578 1575 1573 1572
1618 1618 1618 1619 1618 1619 1618 1617 1616 1615 1616 1614 1613 1613 1612 1611 1609 1606 1604 1601 1597 1594 1592 1590 1587 1585 1583 1580 1578 1576 1575 1573
1615 1617 1618 1618 1618 1618 1619 1619 1618 1616 1616 1616 1615 1615 1613 1612 1610 1608 1605 1602 1599 1596 1594 1591 1588 1586 1584 1581 1579 1577 1575 1574
1613 1615 1616 1618 1618 1618 1619 1619 1618 1617 1616 1616 1616 1615 1615 1613 1611 1610 1607 1603 1600 1597 1595 1592 1589 1587 1585 1582 1581 1578 1576 1574
1610 1612 1614 1616 1616 1618 1618 1619 1619 1618 1617 1616 1616 1615 1615 1614 1612 1609 1608 1606 1602 1598 1595 1593 1590 1588 1585 1583 1581 1579 1577 1574
1607 1610 1612 1613 1614 1616 1617 1618 1619 1618 1618 1617 1615 1615 1614 1613 1610 1609 1607 1605 1603 1600 1595 1592 1590 1587 1585 1583 1581 1578 1576 1574
1603 1607 1610 1612 1612 1614 1615 1616 1618 1617 1617 1617 1616 1614 1613 1611 1610 1608 1605 1602 1600 1598 1595 1591 1588 1585 1583 1581 1578 1576 1574 1571
1600 1605 1608 1609 1611 1613 1614 1615 1616 1616 1616 1615 1613 1612 1611 1609 1607 1604 1602 1600 1597 1595 1593 1589 1586 1583 1579 1576 1574 1571 1569 1568
1598 1603 1605 1608 1609 1611 1613 1614 1616 1615 1612 1610 1610 1609 1607 1604 1602 1600 1598 1596 1593 1590 1586 1584 1582 1579 1576 1574 1570 1567 1565 1563
1594 1599 1602 1607 1609 1611 1610 1611 1612 1612 1611 1610 1608 1605 1603 1601 1599 1596 1593 1590 1588 1585 1582 1580 1577 1575 1572 1569 1566 1564 1561 1559
1592 1598 1601 1604 1607 1608 1609 1610 1610 1609 1608 1608 1606 1602 1600 1597 1595 1592 1589 1586 1583 1581 1577 1574 1571 1569 1566 1563 1560 1558 1556 1553
1591 1596 1599 1600 1603 1606 1606 1607 1608 1606 1605 1604 1601 1599 1596 1594 1591 1588 1585 1582 1579 1576 1572 1569 1566 1563 1560 1556 1553 1550 1548 1544
1591 1593 1596 1599 1601 1603 1606 1605 1604 1603 1602 1600 1598 1594 1593 1590 1588 1585 1581 1577 1574 1571 1568 1564 1561 1558 1555 1552 1549 1542 1538 1535
1589 1593 1596 1599 1602 1604 1604 1603 1602 1600 1599 1597 1594 1592 1589 1587 1584 1581 1577 1573 1569 1566 1563 1559 1556 1553 1550 1548 1541 1536 1532 1528
1590 1594 1598 1600 1603 1604 1603 1602 1600 1598 1596 1594 1592 1589 1585 1583 1579 1576 1573 1569 1566 1562 1558 1555 1552 1548 1546 1541 1537 1533 1527 1522
1593 1596 1599 1600 1602 1603 1602 1599 1597 1596 1593 1591 1588 1585 1581 1578 1575 1572 1568 1565 1561 1558 1554 1551 1548 1544 1540 1535 1531 1525 1520 1515
1594 1596 1598 1599 1599 1599 1597 1596 1595 1592 1589 1587 1584 1581 1578 1574 1571 1568 1564 1560 1557 1554 1550 1546 1542 1539 1535 1530 1524 1519 1513 1508
1593 1595 1597 1598 1598 1596 1593 1592 1590 1588 1586 1584 1581 1576 1573 1570 1566 1563 1559 1556 1553 1549 1545 1541 1537 1533 1528 1522 1518 1511 1505 1501